FW6530 Weather Reports


Display with metric or nautical units.
time (UTC)temp
F
wind
direction
speed
MPH
gust
MPH
rain 1hr
in
rain 24hr
in
rain mn
in
humidity
%
barometer
mb
20260508122023 41 142 0.0 3.0 0.00 0.00 0.00 50 1020.1
20260508121541 41 142 1.0 3.0 0.00 0.00 0.00 50 1020.1
20260508121022 41 138 1.0 2.0 0.00 0.00 0.00 49 1020.1
20260508120522 42 0 0.0 2.0 0.00 0.00 0.00 49 1020.0
20260508120039 42 0 0.0 2.0 0.00 0.00 0.00 48 1020.0
20260508115523 42 136 0.0 4.0 0.00 0.00 0.00 48 1019.9
20260508115022 42 294 2.0 6.0 0.00 0.00 0.00 49 1019.8
20260508114535 40 294 2.0 6.0 0.00 0.00 0.00 51 1019.8
20260508114023 38 302 1.0 3.0 0.00 0.00 0.00 54 1019.8
20260508113524 38 0 0.0 3.0 0.00 0.00 0.00 55 1019.7
20260508113041 38 307 1.0 3.0 0.00 0.00 0.00 54 1019.6
20260508112523 38 307 1.0 3.0 0.00 0.00 0.00 54 1019.6
20260508112023 38 307 1.0 5.0 0.00 0.00 0.00 53 1019.5
20260508111552 38 307 3.0 5.0 0.00 0.00 0.00 52 1019.5
20260508111023 38 308 2.0 4.0 0.00 0.00 0.00 54 1019.4
20260508110531 37 307 1.0 4.0 0.00 0.00 0.00 53 1019.6
20260508110055 37 307 3.0 4.0 0.00 0.00 0.00 54 1019.5
20260508105523 36 307 2.0 4.0 0.00 0.00 0.00 55 1019.7
20260508105023 35 307 1.0 2.0 0.00 0.00 0.00 56 1019.5
20260508104538 35 307 1.0 2.0 0.00 0.00 0.00 56 1019.5
20260508104023 35 307 0.0 2.0 0.00 0.00 0.00 56 1019.4
20260508103525 34 307 0.0 2.0 0.00 0.00 0.00 56 1019.3
20260508103048 35 0 0.0 0.0 0.00 0.00 0.00 55 1019.3
20260508102525 35 0 0.0 0.0 0.00 0.00 0.00 55 1019.2
20260508102025 35 0 0.0 0.0 0.00 0.00 0.00 54 1019.3
20260508101541 36 0 0.0 0.0 0.00 0.00 0.00 51 1019.2
20260508101025 36 0 0.0 0.0 0.00 0.00 0.00 49 1019.2
20260508100524 37 0 0.0 1.0 0.00 0.00 0.00 48 1019.1
20260508100035 37 0 0.0 1.0 0.00 0.00 0.00 48 1019.2
20260508095524 37 308 0.0 3.0 0.00 0.00 0.00 47 1019.2
20260508095026 38 0 0.0 4.0 0.00 0.00 0.00 46 1019.3
20260508094558 38 308 1.0 4.0 0.00 0.00 0.00 45 1019.3
20260508094025 38 308 2.0 4.0 0.00 0.00 0.00 44 1019.3
20260508093525 38 308 2.0 5.0 0.00 0.00 0.00 44 1019.3
20260508093040 38 308 3.0 5.0 0.00 0.00 0.00 44 1019.3
20260508092526 38 308 3.0 5.0 0.00 0.00 0.00 44 1019.4
20260508092023 38 308 3.0 5.0 0.00 0.00 0.00 44 1019.4
20260508091536 38 307 3.0 5.0 0.00 0.00 0.00 44 1019.4
20260508091026 38 306 2.0 5.0 0.00 0.00 0.00 44 1019.5
20260508090523 38 305 3.0 5.0 0.00 0.00 0.00 44 1019.5
20260508090037 38 304 2.0 5.0 0.00 0.00 0.00 45 1019.5
20260508085524 38 304 2.0 5.0 0.00 0.00 0.00 45 1019.6
20260508085025 38 304 3.0 5.0 0.00 0.00 0.00 45 1019.6
20260508084540 38 303 2.0 4.0 0.00 0.00 0.00 45 1019.6
20260508084023 38 302 2.0 4.0 0.00 0.00 0.00 45 1019.6
20260508083524 38 302 2.0 5.0 0.00 0.00 0.00 44 1019.7
20260508083039 38 302 3.0 5.0 0.00 0.00 0.00 44 1019.6
20260508082523 38 302 3.0 5.0 0.00 0.00 0.00 45 1019.7
20260508082028 38 304 3.0 5.0 0.00 0.00 0.00 45 1019.7
20260508081542 38 304 3.0 5.0 0.00 0.00 0.00 45 1019.8
20260508081024 38 304 3.0 5.0 0.00 0.00 0.00 45 1019.8
20260508080526 38 304 3.0 4.0 0.00 0.00 0.00 44 1019.9
20260508080043 39 304 3.0 4.0 0.00 0.00 0.00 44 1019.9
20260508075523 39 304 2.0 4.0 0.00 0.00 0.00 44 1019.9
20260508075024 39 304 2.0 4.0 0.00 0.00 0.00 44 1019.9
20260508074538 39 303 2.0 5.0 0.00 0.00 0.00 44 1020.0
20260508074025 39 303 3.0 5.0 0.00 0.00 0.00 43 1020.0
20260508073525 39 303 3.0 5.0 0.00 0.00 0.00 43 1020.0
20260508073036 39 302 2.0 5.0 0.00 0.00 0.00 43 1020.0
20260508072523 39 302 1.0 3.0 0.00 0.00 0.00 42 1020.1
20260508072026 40 0 1.0 4.0 0.00 0.00 0.00 42 1020.1
20260508071535 40 302 2.0 4.0 0.00 0.00 0.00 41 1020.1
20260508071026 40 302 3.0 4.0 0.00 0.00 0.00 40 1020.0
20260508070525 40 302 2.0 4.0 0.00 0.00 0.00 40 1020.1
20260508070044 40 303 1.0 4.0 0.00 0.00 0.00 39 1020.0
20260508065527 40 302 2.0 4.0 0.00 0.00 0.00 39 1020.1
20260508065027 40 301 2.0 4.0 0.00 0.00 0.00 39 1020.0
20260508064551 41 302 2.0 4.0 0.00 0.00 0.00 40 1020.0
20260508064024 41 302 3.0 4.0 0.00 0.00 0.00 38 1020.0
20260508063526 41 302 2.0 4.0 0.00 0.00 0.00 38 1020.0
20260508063037 42 302 1.0 4.0 0.00 0.00 0.00 38 1020.0
20260508062525 42 302 2.0 4.0 0.00 0.00 0.00 37 1019.9
20260508062025 43 302 2.0 5.0 0.00 0.00 0.00 36 1020.0
20260508061537 43 302 2.0 5.0 0.00 0.00 0.00 34 1020.0
20260508061029 43 302 3.0 5.0 0.00 0.00 0.00 34 1020.0
20260508060525 43 305 3.0 5.0 0.00 0.00 0.00 34 1019.9
20260508060041 43 306 3.0 5.0 0.00 0.00 0.00 34 1020.0
20260508055525 43 305 2.0 5.0 0.00 0.00 0.00 34 1020.0
20260508055027 43 306 3.0 5.0 0.00 0.00 0.00 35 1020.0
20260508054539 43 306 3.0 5.0 0.00 0.00 0.00 35 1020.0
20260508054026 43 18 3.0 4.0 0.00 0.00 0.00 35 1020.0
20260508053524 43 19 2.0 4.0 0.00 0.00 0.00 35 1020.1
20260508053039 44 20 2.0 4.0 0.00 0.00 0.00 34 1020.1
20260508052524 44 21 2.0 4.0 0.00 0.00 0.00 34 1020.0
20260508052025 44 22 1.0 4.0 0.00 0.00 0.00 33 1020.0
20260508051550 44 22 2.0 4.0 0.00 0.00 0.00 33 1020.1
20260508051024 45 22 2.0 5.0 0.00 0.00 0.00 31 1020.0
20260508050524 45 24 3.0 5.0 0.00 0.00 0.00 32 1020.0
20260508050035 45 25 3.0 4.0 0.00 0.00 0.00 31 1020.1
20260508045523 45 26 3.0 4.0 0.00 0.00 0.00 31 1020.0
20260508045025 46 65 2.0 4.0 0.00 0.00 0.00 29 1020.0
20260508044540 46 69 2.0 3.0 0.00 0.00 0.00 29 1020.1
20260508044041 46 69 2.0 3.0 0.00 0.00 0.00 29 1020.1
20260508043525 47 69 2.0 4.0 0.00 0.00 0.00 28 1020.2
20260508043042 48 69 2.0 4.0 0.00 0.00 0.00 27 1020.2
20260508042522 49 71 1.0 3.0 0.00 0.00 0.00 25 1020.3
20260508042024 50 71 1.0 3.0 0.00 0.00 0.00 24 1020.3
20260508041540 51 71 0.0 2.0 0.00 0.00 0.00 24 1020.3
20260508041024 51 0 0.0 2.0 0.00 0.00 0.00 21 1020.2
20260508040524 52 0 0.0 2.0 0.00 0.00 0.00 21 1020.2
20260508040040 52 71 1.0 3.0 0.00 0.00 0.00 20 1020.2
20260508035525 53 0 0.0 3.0 0.00 0.00 0.00 20 1020.1
20260508035023 54 0 1.0 3.0 0.00 0.00 0.00 18 1020.2
20260508034544 55 70 1.0 3.0 0.00 0.00 0.00 18 1020.1
20260508034028 56 82 0.0 3.0 0.00 0.00 0.00 17 1020.0
20260508033524 57 0 0.0 6.0 0.00 0.00 0.00 15 1020.0
20260508033039 58 0 1.0 7.0 0.00 0.00 0.00 14 1019.9
20260508032524 58 0 1.0 8.0 0.00 0.00 0.00 14 1019.7
20260508032023 58 100 1.0 10.0 0.00 0.00 0.00 14 1019.6
20260508031539 59 106 3.0 10.0 0.00 0.00 0.00 14 1019.5
20260508031025 59 122 4.0 10.0 0.00 0.00 0.00 13 1019.4
20260508030524 59 100 3.0 11.0 0.00 0.00 0.00 13 1019.3
20260508030039 59 101 4.0 12.0 0.00 0.00 0.00 13 1019.2
20260508025523 59 128 5.0 12.0 0.00 0.00 0.00 13 1019.1
20260508025024 59 94 5.0 12.0 0.00 0.00 0.00 13 1019.0
20260508024545 58 71 4.0 9.0 0.00 0.00 0.00 14 1019.0
20260508024026 58 103 4.0 8.0 0.00 0.00 0.00 13 1019.0
20260508023526 58 94 2.0 7.0 0.00 0.00 0.00 14 1019.0
20260508023035 59 81 1.0 7.0 0.00 0.00 0.00 14 1018.8
20260508022525 59 46 2.0 4.0 0.00 0.00 0.00 14 1018.8
20260508022025 60 46 2.0 4.0 0.00 0.00 0.00 13 1018.9
20260508021545 61 49 1.0 6.0 0.00 0.00 0.00 14 1018.8
20260508021024 61 49 2.0 6.0 0.00 0.00 0.00 13 1018.7
20260508020525 62 42 2.0 8.0 0.00 0.00 0.00 13 1018.6
20260508020038 63 67 3.0 9.0 0.00 0.00 0.00 12 1018.6
20260508015525 63 67 2.0 9.0 0.00 0.00 0.00 12 1018.6
20260508015025 64 118 2.0 8.0 0.00 0.00 0.00 12 1018.6
20260508014549 65 78 3.0 10.0 0.00 0.00 0.00 12 1018.6
20260508014024 65 72 4.0 10.0 0.00 0.00 0.00 12 1018.5
20260508013524 66 78 6.0 10.0 0.00 0.00 0.00 11 1018.4
20260508013043 66 116 3.0 12.0 0.00 0.00 0.00 12 1018.4
20260508012523 67 111 6.0 13.0 0.00 0.00 0.00 11 1018.4
20260508012025 67 92 6.0 13.0 0.00 0.00 0.00 11 1018.4
20260508011541 67 125 6.0 11.0 0.00 0.00 0.00 11 1018.3
20260508011024 67 127 4.0 14.0 0.00 0.00 0.00 11 1018.3
20260508010524 68 107 6.0 14.0 0.00 0.00 0.00 11 1018.4
20260508010038 68 135 5.0 11.0 0.00 0.00 0.00 12 1018.4
20260508005527 68 128 6.0 12.0 0.00 0.00 0.00 12 1018.4
20260508005025 69 74 6.0 12.0 0.00 0.00 0.00 12 1018.4
20260508004538 69 59 3.0 12.0 0.00 0.00 0.00 12 1018.4
20260508004022 68 158 5.0 12.0 0.00 0.00 0.00 11 1018.3
20260508003527 69 144 4.0 12.0 0.00 0.00 0.00 11 1018.4
20260508003054 69 99 7.0 12.0 0.00 0.00 0.00 12 1018.4
20260508002527 69 96 5.0 14.0 0.00 0.00 0.00 11 1018.5
20260508002027 69 126 6.0 16.0 0.00 0.00 0.00 11 1018.6
20260508001536 70 111 7.0 16.0 0.00 0.00 0.00 11 1018.6
20260508001024 70 192 3.0 10.0 0.00 0.00 0.00 11 1018.5
20260508000525 70 186 2.0 13.0 0.00 0.00 0.00 12 1018.5
20260508000041 70 129 6.0 13.0 0.00 0.00 0.00 12 1018.6
20260507235525 70 71 3.0 13.0 0.00 0.00 0.00 13 1018.5
20260507235024 69 114 3.0 11.0 0.00 0.00 0.00 12 1018.6
20260507234539 69 115 4.0 13.0 0.00 0.00 0.00 13 1018.7
20260507234027 69 119 7.0 13.0 0.00 0.00 0.00 13 1018.7
20260507233524 69 117 7.0 15.0 0.00 0.00 0.00 14 1018.8
20260507233038 69 84 7.0 15.0 0.00 0.00 0.00 14 1018.8
20260507232523 69 97 6.0 16.0 0.00 0.00 0.00 15 1018.8
20260507232023 70 107 6.0 16.0 0.00 0.00 0.00 16 1018.7
20260507231540 70 115 3.0 13.0 0.00 0.00 0.00 16 1018.7
20260507231028 69 188 5.0 12.0 0.00 0.00 0.00 16 1018.8
20260507230523 69 186 6.0 15.0 0.00 0.00 0.00 16 1018.9
20260507230038 69 167 8.0 18.0 0.00 0.00 0.00 17 1018.8
20260507225528 69 111 6.0 18.0 0.00 0.00 0.00 18 1018.8
20260507225024 70 182 7.0 15.0 0.00 0.00 0.00 18 1018.7
20260507224557 70 209 7.0 15.0 0.00 0.00 0.00 19 1018.7
20260507224022 70 184 7.0 14.0 0.00 0.00 0.00 19 1018.8
20260507223524 70 173 4.0 12.0 0.00 0.00 0.00 18 1018.8
20260507223041 70 135 7.0 12.0 0.00 0.00 0.00 19 1018.8
20260507222523 69 226 4.0 13.0 0.00 0.00 0.00 18 1018.9
20260507222024 69 350 4.0 13.0 0.00 0.00 0.00 18 1019.0
20260507221537 69 62 4.0 11.0 0.00 0.00 0.00 18 1019.1
20260507221027 70 360 3.0 14.0 0.00 0.00 0.00 18 1019.2
20260507220527 70 194 7.0 14.0 0.00 0.00 0.00 18 1019.2
20260507220037 69 183 3.0 13.0 0.00 0.00 0.00 17 1019.3
20260507215528 69 80 6.0 13.0 0.00 0.00 0.00 16 1019.3
20260507215023 69 107 5.0 14.0 0.00 0.00 0.00 15 1019.4
20260507214536 69 94 5.0 14.0 0.00 0.00 0.00 16 1019.5
20260507214025 69 157 8.0 14.0 0.00 0.00 0.00 15 1019.6
20260507213523 69 180 7.0 12.0 0.00 0.00 0.00 15 1019.6
20260507213041 69 136 4.0 12.0 0.00 0.00 0.00 14 1019.7
20260507212524 69 225 1.0 12.0 0.00 0.00 0.00 14 1019.7
20260507212020 69 242 4.0 14.0 0.00 0.00 0.00 13 1020.0
20260507211550 69 143 7.0 17.0 0.00 0.00 0.00 12 1019.8
20260507211024 69 196 7.0 17.0 0.00 0.00 0.00 13 1020.0
20260507210522 69 177 4.0 15.0 0.00 0.00 0.00 12 1020.0
20260507210042 69 157 8.0 15.0 0.00 0.00 0.00 11 1020.1
20260507205524 69 208 7.0 15.0 0.00 0.00 0.00 11 1020.2
20260507205028 69 173 7.0 13.0 0.00 0.00 0.00 11 1020.2
20260507204543 69 180 5.0 13.0 0.00 0.00 0.00 10 1020.2
20260507204024 69 251 4.0 13.0 0.00 0.00 0.00 11 1020.3
20260507203524 69 194 3.0 16.0 0.00 0.00 0.00 10 1020.4
20260507203036 69 187 6.0 16.0 0.00 0.00 0.00 10 1020.6
20260507202522 69 193 4.0 14.0 0.00 0.00 0.00 10 1020.5
20260507202024 69 251 5.0 14.0 0.00 0.00 0.00 10 1020.7
20260507201539 69 177 4.0 12.0 0.00 0.00 0.00 12 1020.7
20260507201025 68 240 4.0 9.0 0.00 0.00 0.00 9 1020.7
20260507200524 67 173 3.0 15.0 0.00 0.00 0.00 11 1020.7
20260507200038 67 253 5.0 18.0 0.00 0.00 0.00 10 1020.7
20260507195522 67 178 7.0 18.0 0.00 0.00 0.00 10 1020.8
20260507195024 67 177 8.0 17.0 0.00 0.00 0.00 12 1020.9
20260507194541 67 259 4.0 18.0 0.00 0.00 0.00 10 1020.9
20260507194023 67 229 7.0 18.0 0.00 0.00 0.00 9 1020.8
20260507193524 67 147 5.0 14.0 0.00 0.00 0.00 11 1020.9
20260507193036 67 251 4.0 18.0 0.00 0.00 0.00 11 1021.0
20260507192524 66 239 7.0 18.0 0.00 0.00 0.00 13 1021.1
20260507192024 66 204 5.0 18.0 0.00 0.00 0.00 13 1021.1
20260507191853 66 206 8.0 18.0 0.00 0.00 0.00 12 1021.1
20260507191020 66 182 7.0 15.0 0.00 0.00 0.00 12 1021.2
20260507190524 66 180 4.0 14.0 0.00 0.00 0.00 15 1021.3
20260507190036 66 172 6.0 14.0 0.00 0.00 0.00 14 1021.3
20260507185523 66 256 4.0 13.0 0.00 0.00 0.00 16 1021.5
20260507185023 65 244 4.0 16.0 0.00 0.00 0.00 16 1021.5
20260507184538 65 198 8.0 16.0 0.00 0.00 0.00 15 1021.4
20260507184021 64 196 5.0 14.0 0.00 0.00 0.00 16 1021.6
20260507183521 64 271 5.0 12.0 0.00 0.00 0.00 17 1021.6
20260507183041 64 192 6.0 12.0 0.00 0.00 0.00 18 1021.6
20260507182524 63 178 6.0 12.0 0.00 0.00 0.00 15 1021.6
20260507182024 63 178 5.0 18.0 0.00 0.00 0.00 15 1021.8
20260507181540 63 211 8.0 18.0 0.00 0.00 0.00 17 1021.8
20260507181024 63 196 6.0 15.0 0.00 0.00 0.00 21 1021.8
20260507180521 62 193 5.0 15.0 0.00 0.00 0.00 21 1022.0
20260507180043 61 236 5.0 15.0 0.00 0.00 0.00 24 1022.0
20260507175528 61 240 6.0 18.0 0.00 0.00 0.00 24 1022.0
20260507175026 61 209 7.0 18.0 0.00 0.00 0.00 26 1022.1
20260507174543 60 240 5.0 15.0 0.00 0.00 0.00 28 1022.2
20260507174026 60 229 5.0 15.0 0.00 0.00 0.00 28 1022.3
20260507173525 60 240 6.0 16.0 0.00 0.00 0.00 30 1022.5
20260507173039 59 256 5.0 16.0 0.00 0.00 0.00 33 1022.4
20260507172526 59 234 6.0 15.0 0.00 0.00 0.00 32 1022.6
20260507172025 59 261 5.0 14.0 0.00 0.00 0.00 35 1022.6
20260507171538 58 236 3.0 14.0 0.00 0.00 0.00 36 1022.7
20260507171025 57 196 6.0 15.0 0.00 0.00 0.00 36 1022.7
20260507170525 56 215 5.0 15.0 0.00 0.00 0.00 37 1022.8
20260507170038 56 203 7.0 15.0 0.00 0.00 0.00 38 1022.8
20260507165526 56 257 6.0 15.0 0.00 0.00 0.00 38 1022.8
20260507165025 55 200 7.0 15.0 0.00 0.00 0.00 39 1022.9
20260507164536 55 173 6.0 12.0 0.00 0.00 0.00 39 1022.8
20260507164025 54 262 4.0 15.0 0.00 0.00 0.00 42 1022.9
20260507163525 53 219 7.0 15.0 0.00 0.00 0.00 42 1023.1
20260507163041 53 184 5.0 14.0 0.00 0.00 0.00 43 1023.1
20260507162529 52 196 7.0 14.0 0.00 0.00 0.00 43 1023.1
20260507162028 52 273 5.0 12.0 0.00 0.00 0.00 46 1023.3
20260507161540 51 271 5.0 14.0 0.00 0.00 0.00 46 1023.4
20260507161025 51 243 4.0 16.0 0.00 0.00 0.00 48 1023.5
20260507160526 50 276 6.0 16.0 0.00 0.00 0.00 48 1023.5
20260507160040 50 208 5.0 15.0 0.00 0.00 0.00 49 1023.5
20260507155527 49 189 5.0 15.0 0.00 0.00 0.00 50 1023.6
20260507155025 49 232 5.0 13.0 0.00 0.00 0.00 49 1023.5
20260507154541 49 218 4.0 13.0 0.00 0.00 0.00 48 1023.7
20260507154025 49 220 6.0 13.0 0.00 0.00 0.00 50 1023.7
20260507153525 49 205 5.0 12.0 0.00 0.00 0.00 49 1023.8
20260507153038 48 230 5.0 15.0 0.00 0.00 0.00 49 1023.8
20260507152526 48 178 4.0 15.0 0.00 0.00 0.00 50 1023.7
20260507152025 48 202 5.0 14.0 0.00 0.00 0.00 49 1023.7
20260507151535 48 252 6.0 14.0 0.00 0.00 0.00 50 1023.6
20260507151026 47 188 5.0 13.0 0.00 0.00 0.00 51 1023.6
20260507150525 47 195 4.0 10.0 0.00 0.00 0.00 52 1023.6
20260507150041 47 169 4.0 10.0 0.00 0.00 0.00 54 1023.6
20260507145525 46 173 4.0 9.0 0.00 0.00 0.00 56 1023.7
20260507145025 46 256 3.0 11.0 0.00 0.00 0.00 57 1023.8
20260507144539 46 213 4.0 11.0 0.00 0.00 0.00 57 1023.9
20260507144044 45 243 3.0 8.0 0.00 0.00 0.00 59 1024.0
20260507143525 45 247 3.0 10.0 0.00 0.00 0.00 59 1024.0
20260507143039 45 286 3.0 10.0 0.00 0.00 0.00 59 1024.1
20260507142526 45 243 4.0 9.0 0.00 0.00 0.00 59 1024.1
20260507142025 44 231 3.0 9.0 0.00 0.00 0.00 61 1024.1
20260507141539 44 240 3.0 9.0 0.00 0.00 0.00 64 1024.1
20260507141025 44 287 3.0 9.0 0.00 0.00 0.00 66 1024.2
20260507140525 43 257 3.0 7.0 0.00 0.00 0.00 66 1024.2
20260507140047 43 234 3.0 7.0 0.00 0.00 0.00 68 1024.3
20260507135525 43 225 2.0 7.0 0.00 0.00 0.00 70 1024.3
20260507135026 42 248 2.0 6.0 0.00 0.00 0.00 71 1024.3
20260507134535 42 282 3.0 7.0 0.00 0.00 0.00 71 1024.3
20260507134027 41 289 2.0 7.0 0.00 0.00 0.00 72 1024.3
20260507133527 40 257 1.0 4.0 0.00 0.00 0.00 74 1024.3
20260507133039 40 293 2.0 4.0 0.00 0.00 0.00 75 1024.3
20260507132525 39 304 2.0 4.0 0.00 0.00 0.00 76 1024.2
20260507132025 38 0 0.0 3.0 0.00 0.00 0.00 79 1024.2
20260507131544 37 306 1.0 3.0 0.00 0.00 0.00 79 1024.3
20260507131026 36 306 1.0 3.0 0.00 0.00 0.00 80 1024.3
20260507130523 35 306 0.0 3.0 0.00 0.00 0.00 82 1024.4
20260507130042 34 306 0.0 2.0 0.00 0.00 0.00 83 1024.4
20260507125525 33 306 0.0 3.0 0.00 0.00 0.00 85 1024.3
20260507125024 32 0 0.0 3.0 0.00 0.00 0.00 86 1024.4
20260507124540 31 306 0.0 3.0 0.00 0.00 0.00 86 1024.4
20260507124028 30 0 0.0 3.0 0.00 0.00 0.00 86 1024.4
20260507123525 30 306 1.0 3.0 0.00 0.00 0.00 86 1024.3
20260507123036 30 306 1.0 4.0 0.00 0.00 0.00 86 1024.3
20260507122525 30 306 2.0 4.0 0.00 0.00 0.00 86 1024.3